• Em Portugal
  • Lista de países
  • Para 7 dias
  • Temperatura da água
  • Mapas de satélite
  • Mapa do tempo
  • Widgets de tempo
  • user-avatar
    Iniciar Sessão

    Previsão horária em Canberra

    Hoje, 26 Setembro, Quarta-feira

    Tempo Temperatura Precipitação Vento Pressão Humidade
    00:00 +7°C° 0.1 mm 1 m/s 713 mmHg 97%
    01:00 +7°C° 0.1 mm 1 m/s 713 mmHg 98%
    02:00 +7°C° 0.3 mm 1 m/s 713 mmHg 98%
    03:00 +7°C° 0.3 mm 1 m/s 712 mmHg 98%
    04:00 +7°C° 0 mm 1 m/s 712 mmHg 98%
    05:00 +7°C° 0.5 mm 1 m/s 712 mmHg 97%
    06:00 +6°C° 0.5 mm 2 m/s 712 mmHg 97%
    07:00 +7°C° 0.5 mm 2 m/s 713 mmHg 96%
    08:00 +7°C° 0.1 mm 2 m/s 713 mmHg 91%
    09:00 +8°C° 0.1 mm 3 m/s 713 mmHg 86%
    10:00 +9°C° 0.1 mm 3 m/s 713 mmHg 82%
    11:00 +10°C° 0.1 mm 3 m/s 713 mmHg 75%
    12:00 +11°C° 0.1 mm 3 m/s 712 mmHg 69%
    13:00 +12°C° 0.1 mm 3 m/s 712 mmHg 63%
    14:00 +12°C° 0 mm 3 m/s 712 mmHg 64%
    15:00 +12°C° 0 mm 3 m/s 711 mmHg 64%
    16:00 +12°C° 0 mm 3 m/s 711 mmHg 64%
    17:00 +10°C° 0 mm 3 m/s 711 mmHg 73%
    18:00 +8°C° 0 mm 2 m/s 712 mmHg 82%
    19:00 +6°C° 0 mm 2 m/s 712 mmHg 91%
    20:00 +5°C° 0 mm 2 m/s 712 mmHg 93%
    21:00 +6°C° 0 mm 1 m/s 712 mmHg 95%
    22:00 +5°C° 0 mm 1 m/s 712 mmHg 97%
    23:00 +5°C° 0 mm 1 m/s 712 mmHg 97%

    Amanhã, 27 Setembro, Quinta-feira

    Tempo Temperatura Precipitação Vento Pressão Humidade
    00:00 +5°C° 0 mm 1 m/s 712 mmHg 98%
    01:00 +5°C° 0 mm 1 m/s 712 mmHg 98%
    02:00 +5°C° 0 mm 1 m/s 712 mmHg 97%
    03:00 +5°C° 0 mm 1 m/s 711 mmHg 97%
    04:00 +5°C° 0 mm 1 m/s 711 mmHg 96%
    05:00 +5°C° 0 mm 1 m/s 711 mmHg 93%
    06:00 +6°C° 0 mm 1 m/s 711 mmHg 90%
    07:00 +7°C° 0 mm 1 m/s 712 mmHg 87%
    08:00 +10°C° 0 mm 1 m/s 712 mmHg 74%
    09:00 +13°C° 0 mm 2 m/s 712 mmHg 61%
    10:00 +15°C° 0 mm 2 m/s 712 mmHg 49%
    11:00 +17°C° 0 mm 3 m/s 711 mmHg 46%
    12:00 +18°C° 0 mm 3 m/s 711 mmHg 43%
    13:00 +19°C° 0 mm 3 m/s 710 mmHg 40%
    14:00 +19°C° 0 mm 3 m/s 710 mmHg 42%
    15:00 +19°C° 0 mm 4 m/s 709 mmHg 44%
    16:00 +19°C° 0 mm 4 m/s 709 mmHg 47%
    17:00 +16°C° 0 mm 3 m/s 709 mmHg 56%
    18:00 +14°C° 0 mm 2 m/s 709 mmHg 66%
    19:00 +12°C° 0 mm 1 m/s 709 mmHg 76%
    20:00 +11°C° 0 mm 1 m/s 709 mmHg 78%
    21:00 +10°C° 0 mm 1 m/s 709 mmHg 81%
    22:00 +9°C° 0 mm 1 m/s 709 mmHg 83%
    23:00 +9°C° 0 mm 1 m/s 708 mmHg 83%

    Depois de amanhã, 28 Setembro, Sexta-feira

    Tempo Temperatura Precipitação Vento Pressão Humidade
    00:00 +9°C° 0 mm 1 m/s 708 mmHg 82%
    01:00 +9°C° 0 mm 1 m/s 708 mmHg 82%
    02:00 +9°C° 0 mm 1 m/s 707 mmHg 81%
    03:00 +8°C° 0 mm 1 m/s 707 mmHg 81%
    04:00 +7°C° 0 mm 2 m/s 707 mmHg 81%
    05:00 +8°C° 0 mm 2 m/s 707 mmHg 78%
    06:00 +9°C° 0 mm 2 m/s 708 mmHg 75%
    07:00 +10°C° 0 mm 3 m/s 708 mmHg 72%
    08:00 +13°C° 0 mm 3 m/s 708 mmHg 63%
    09:00 +15°C° 0 mm 4 m/s 708 mmHg 55%
    10:00 +19°C° 0 mm 5 m/s 708 mmHg 46%
    11:00 +20°C° 0 mm 5 m/s 708 mmHg 45%
    12:00 +21°C° 0 mm 6 m/s 708 mmHg 43%
    13:00 +21°C° 0 mm 6 m/s 707 mmHg 41%
    14:00 +21°C° 0 mm 6 m/s 707 mmHg 44%
    15:00 +20°C° 0 mm 5 m/s 707 mmHg 47%
    16:00 +19°C° 0 mm 5 m/s 706 mmHg 50%
    17:00 +17°C° 0 mm 4 m/s 707 mmHg 58%
    18:00 +14°C° 0 mm 3 m/s 707 mmHg 65%
    19:00 +13°C° 0 mm 2 m/s 708 mmHg 72%
    20:00 +10°C° 0 mm 2 m/s 708 mmHg 76%
    21:00 +10°C° 0 mm 1 m/s 708 mmHg 79%
    22:00 +9°C° 0 mm 1 m/s 708 mmHg 83%
    23:00 +8°C° 0 mm 1 m/s 708 mmHg 85%

    29 Setembro, Sábado

    Tempo Temperatura Precipitação Vento Pressão Humidade
    00:00 +7°C° 0 mm 1 m/s 708 mmHg 87%
    01:00 +6°C° 0 mm 1 m/s 708 mmHg 88%
    02:00 +6°C° 0 mm 1 m/s 708 mmHg 88%
    03:00 +6°C° 0 mm 1 m/s 709 mmHg 87%
    04:00 +6°C° 0 mm 1 m/s 709 mmHg 87%
    05:00 +5°C° 0 mm 2 m/s 710 mmHg 86%
    06:00 +6°C° 0 mm 2 m/s 710 mmHg 86%
    07:00 +6°C° 0 mm 2 m/s 711 mmHg 85%
    08:00 +7°C° 0.2 mm 2 m/s 711 mmHg 77%
    09:00 +8°C° 0.2 mm 2 m/s 712 mmHg 69%
    10:00 +9°C° 0.2 mm 3 m/s 712 mmHg 61%
    11:00 +10°C° 0.1 mm 2 m/s 712 mmHg 54%
    12:00 +13°C° 0.1 mm 2 m/s 712 mmHg 46%
    13:00 +14°C° 0.1 mm 2 m/s 712 mmHg 39%
    14:00 +14°C° 0 mm 2 m/s 712 mmHg 39%
    15:00 +14°C° 0 mm 2 m/s 712 mmHg 39%
    16:00 +14°C° 0 mm 2 m/s 713 mmHg 39%
    17:00 +12°C° 0 mm 2 m/s 713 mmHg 48%
    18:00 +9°C° 0 mm 2 m/s 714 mmHg 56%
    19:00 +7°C° 0 mm 2 m/s 714 mmHg 65%
    20:00 +6°C° 0 mm 2 m/s 715 mmHg 71%
    21:00 +6°C° 0 mm 1 m/s 715 mmHg 77%
    22:00 +4°C° 0 mm 1 m/s 716 mmHg 83%
    23:00 +4°C° 0 mm 1 m/s 716 mmHg 85%

    30 Setembro, Domingo

    Tempo Temperatura Precipitação Vento Pressão Humidade
    00:00 +4°C° 0 mm 1 m/s 716 mmHg 87%
    01:00 +3°C° 0 mm 1 m/s 716 mmHg 88%
    02:00 +3°C° 0 mm 1 m/s 716 mmHg 88%
    03:00 +3°C° 0 mm 1 m/s 716 mmHg 88%
    04:00 +2°C° 0 mm 1 m/s 716 mmHg 88%
    05:00 +4°C° 0 mm 1 m/s 717 mmHg 82%
    06:00 +5°C° 0 mm 1 m/s 717 mmHg 77%
    07:00 +6°C° 0 mm 1 m/s 718 mmHg 71%
    08:00 +9°C° 0 mm 1 m/s 718 mmHg 62%
    09:00 +12°C° 0 mm 1 m/s 719 mmHg 53%
    10:00 +14°C° 0 mm 1 m/s 719 mmHg 44%
    11:00 +15°C° 0 mm 1 m/s 718 mmHg 42%
    12:00 +16°C° 0 mm 1 m/s 718 mmHg 40%
    13:00 +18°C° 0 mm 1 m/s 718 mmHg 37%
    14:00 +18°C° 0 mm 1 m/s 717 mmHg 39%
    15:00 +17°C° 0 mm 2 m/s 717 mmHg 41%
    16:00 +16°C° 0 mm 2 m/s 717 mmHg 43%
    17:00 +14°C° 0 mm 1 m/s 717 mmHg 55%
    18:00 +11°C° 0 mm 1 m/s 717 mmHg 66%
    19:00 +8°C° 0 mm 1 m/s 717 mmHg 78%
    20:00 +7°C° 0 mm 1 m/s 718 mmHg 82%
    21:00 +6°C° 0 mm 1 m/s 718 mmHg 86%
    22:00 +5°C° 0 mm 1 m/s 718 mmHg 90%
    23:00 +5°C° 0 mm 1 m/s 718 mmHg 91%

    1 Outubro, Segunda-feira

    Tempo Temperatura Precipitação Vento Pressão Humidade
    00:00 +5°C° 0 mm 1 m/s 718 mmHg 91%
    01:00 +4°C° 0 mm 1 m/s 718 mmHg 92%
    02:00 +4°C° 0 mm 1 m/s 718 mmHg 92%
    03:00 +4°C° 0 mm 1 m/s 718 mmHg 92%
    04:00 +4°C° 0 mm 1 m/s 718 mmHg 92%
    05:00 +5°C° 0 mm 1 m/s 718 mmHg 87%
    06:00 +7°C° 0 mm 1 m/s 719 mmHg 81%
    07:00 +8°C° 0 mm 1 m/s 719 mmHg 76%
    08:00 +11°C° 0 mm 1 m/s 719 mmHg 65%
    09:00 +14°C° 0 mm 1 m/s 719 mmHg 54%
    10:00 +17°C° 0 mm 2 m/s 719 mmHg 43%
    11:00 +18°C° 0 mm 2 m/s 719 mmHg 40%
    12:00 +19°C° 0 mm 2 m/s 718 mmHg 37%
    13:00 +20°C° 0 mm 2 m/s 718 mmHg 35%
    14:00 +20°C° 0 mm 2 m/s 717 mmHg 37%
    15:00 +20°C° 0 mm 2 m/s 717 mmHg 39%
    16:00 +19°C° 0 mm 2 m/s 716 mmHg 41%
    17:00 +17°C° 0 mm 2 m/s 716 mmHg 52%
    18:00 +14°C° 0 mm 1 m/s 716 mmHg 63%
    19:00 +11°C° 0 mm 1 m/s 716 mmHg 74%
    20:00 +10°C° 0 mm 1 m/s 716 mmHg 77%
    21:00 +9°C° 0 mm 1 m/s 717 mmHg 80%
    22:00 +9°C° 0 mm 1 m/s 717 mmHg 83%
    23:00 +8°C° 0 mm 1 m/s 717 mmHg 83%
    Mostrar mais